Preview of NWS' New Version of Forecast
This preview is not operational and should not be used for support decisions.

Regional Weather Roundup (RWR)

Issued by National Weather Service (NWS)

                            
000
ASCA42 TJSJ 202210
RWRPR 
PUERTO RICO/U.S. VIRGIN ISLANDS HOURLY WEATHER ROUNDUP
NATIONAL WEATHER SERVICE SAN JUAN PR
600 PM AST TUE AUG 20 2019

PRZ001>002-007>008-010-202300-
PUERTO RICO
  
CITY           SKY/WX    TMP DP  RH WIND       PRES   REMARKS
SAN JUAN LMM   MOSUNNY   84  75  74 E14       30.01S HX  92           
AGUADILLA      SUNNY     81  73  78 E3        30.03R                  
CEIBA          CLEAR     84  75  74 NE8       30.02S HX  92           
$$

VIZ001>002-202300-
U.S. VIRGIN ISLANDS
  
CITY           SKY/WX    TMP DP  RH WIND       PRES   REMARKS
CHARLOTTE AMA  PTCLDY    82  77  83 NE8       30.00S HX  91           
CHRISTIANSTED  PTCLDY    84  73  70 NE10      30.01S HX  91           
$$

HOURLY WEATHER ROUNDUP FOR THE NEWS MEDIA
  
CITY           SKY/WX    TMP DP  RH WIND       PRES   REMARKS
ORLANDO        FAIR      86  71  60 E9        30.06F HX  91           
NEW YORK       FAIR      82  64  54 S9        30.07S                  
NEWARK         PTSUNNY   85  63  47 S10       30.04F                  
CHICAGO        PTSUNNY   75  69  81 CALM      29.91F                  
HARTFORD       FAIR      82  63  52 SW8       30.04S                  
BOSTON         PTSUNNY   77  62  59 E12       30.04F                  
DALLAS         MOSUNNY  101  65  30 SE7       29.95F HX 104           
PHILADELPHIA   PTSUNNY   88  68  51 S8        30.03F HX  91           
LOS ANGELES    SUNNY     76  60  57 W17       29.91F                  
WASHINGTON DC  TSTM      74  68  81 E7        30.01F